Retour au catalogue

ESSA 3

TOS-A

ActifMétéoLEO
NORAD 2435·PAYLOAD·🇺🇸 United States

Lancé Oct 2, 1966 depuis Vandenberg Space Force Base

Loading…

Prochains Passages (prochaines 24 heures)

TLE

FraisSource: Space-Track

Époque: Sep 14, 2026, 22:34 UTC

1 02435U 66087A   26257.94088144 -.00000038  00000-0  19598-4 0  9999
2 02435 101.0625 155.2945 0063552 218.6746 203.4336 12.56881008750289

Suivez ESSA 3 en temps réel avec AllMySat

Download on the App Store